Regional Weather Roundup
Issued by NWS

Home | Current Version | Previous Version | Text Only | Print | Product List | Glossary On
Versions: 1 2 3 4 5 6 7 8 9 10 11 12 13 14 15 16 17 18 19 20 21 22 23 24 25 26 27 28 29 30 31 32 33 34 35 36 37 38 39 40 41 42 43 44 45 46 47 48 49 50
000
ASUS43 KTOP 280308
RWRKS

WEATHER ROUNDUP FOR KANSAS
NATIONAL WEATHER SERVICE GOODLAND KS
900 PM CST FRI FEB 27 2015

NOTE:  "FAIR" INDICATES FEW OR NO CLOUDS BELOW 12,000 FEET WITH NO
SIGNIFICANT WEATHER AND/OR OBSTRUCTIONS TO VISIBILITY.

KSZ001>006-013>018-027>032-041>047-280400-
NORTHWEST KANSAS

CITY           SKY/WX    TMP DP  RH WIND       PRES   REMARKS
GOODLAND       LGT SNOW  12   7  80 S21       30.17S WCI  -7
HAYS           CLOUDY    16   3  57 S12       30.37S WCI   3
HILL CITY      CLOUDY    17   6  62 S9        30.35S
RUSSELL        CLOUDY    14   9  80 SE10      30.40R WCI   1
$$

KSZ061>065-074>080-084>089-280400-
SOUTHWEST KANSAS

CITY           SKY/WX    TMP DP  RH WIND       PRES   REMARKS
DODGE CITY     CLOUDY    11   6  81 SE12      30.33R WCI  -3
ELKHART          N/A     13   5  70 SE16        N/A  WCI  -3
GARDEN CITY    CLOUDY    10   7  87 SE13      30.28S WCI  -5
GREAT BEND     CLOUDY    14   7  73 SE8       30.41S
LIBERAL        CLOUDY    14   7  73 E10       30.27S WCI   1
PRATT          FLURRIES  14   9  79 SE7       30.41S
$$

KSZ066>073-081>083-090>101-280400-
SOUTHEAST KANSAS

CITY           SKY/WX    TMP DP  RH WIND       PRES   REMARKS
CHANUTE        CLOUDY    18  10  71 NE7       30.54R
COFFEYVILLE    CLOUDY    18  12  77 CALM      30.55S
HUTCHINSON     MOCLDY     7   3  84 E5        30.45S
MEDICINE LODGE   N/A     14  10  84 SE5       30.44S
NEWTON         MOCLDY    12   5  73 SE6       30.47S
PARSONS        CLOUDY    20   8  60 VRB3      30.55R
WICHITA INTL   CLOUDY    16  10  77 E9        30.47S
WICHITA JABRA  CLOUDY    15  10  80 E7        30.47F
WICHITA MCCONL CLOUDY    15  11  83 E7        30.47S HAZE
WINFIELD       CLOUDY    16  11  80 E8        30.51R
$$

KSZ007>012-019>026-033>040-048>060-102>105-280400-
NORTHEAST KANSAS

CITY           SKY/WX    TMP DP  RH WIND       PRES   REMARKS
CONCORDIA      CLEAR      9   1  70 SE5       30.46S
EMPORIA        CLOUDY    15  10  80 SE7       30.51S
LAWRENCE       MOCLDY    15   2  56 E6        30.56S
MANHATTAN      CLEAR     15   5  64 CALM      30.52R
MARYSVILLE     CLOUDY    18   3  53 S8        30.50R
OLATHE IND     CLOUDY    18   4  54 E6        30.54S
OLATHE EXE     CLOUDY    18   2  49 E6        30.53S
SALINA         CLOUDY    16   9  74 SE7       30.48S
TOPEKA BILLARD PTCLDY    15   2  56 E6        30.55S
TOPEKA FORBES  PTCLDY    16   3  56 E5        30.52S
$$


USA.gov is the U.S. government's official web portal to all federal, state and local government web resources and services.